User: anonymous
Location: Unspecified
(0.0000°N, 0.0000°E)
Time: 10:10:06
(UTC+02:00)
Language:

CZ-4B DEB - Orbit

View from above orbital plane
View from above orbital plane
View from above satellite
View from above satellite

Ground track
Ground track

The orbit data is extracted from the following two-line orbital elements,

1 33411U 08053D   14241.46409878  .00011866  00000-0  68844-3 0  2590
2 33411 097.5130 259.6771 0010313 020.9692 339.1959 15.12259908319365
Epoch (UTC): 29 August 2014 11:08:18
Eccentricity: 0.0010313
inclination: 97.5130°
perigee height: 522 km
apogee height: 536 km
right ascension of ascending node: 259.6771°
argument of perigee: 20.9692°
revolutions per day: 15.12259908
mean anomaly at epoch: 339.1959°
orbit number at epoch: 31936

The dashed part of the orbit path shows where the satellite is in the earth's shadow,  

DLR